[[{"header":{"parameterUnit":"m.s-1","parameterCategory":1,"la1":30.2991,"la2":30.254,"lo1":-89.0895,"lo2":-89.0444,"dy":0.0017,"dx":0.0017,"nx":28,"ny":28,"refTime":"2024-04-18T09:00:00:Z","depth":0,"parameterNumber":2,"parameterNumberName":"U-component_of_WINDS"},"data":[0,0,0,0,0,0,0,0,0,0,0,0,0,0,0,0,0,0,0,0,0,0,0,0,0,0,0,0,0,0,0,0,0,0,0,0,0,0,0,0,0,0,0,0,0,0,0,0,0,0,0,0,0,0,0,0,0,0,1.0796,1.0797,0,1.089,1.0891,1.0892,1.0903,1.0902,1.0901,1.0901,1.0999,1.1002,1.1005,0,0,0,0,0,0,0,0,0,0,0,0,0,1.0627,1.063,1.0795,1.0797,1.0798,1.0889,1.0891,1.0892,1.0903,1.0902,1.0901,1.09,1.0998,1.1002,1.1006,0,0,0,0,0,0,0,0,0,0,0,0,0,1.0708,1.0631,1.0795,1.0815,1.0817,1.0889,1.0891,1.0892,1.0904,1.0902,1.0901,1.09,1.0996,1.1001,1.1006,1.1066,0,0,1.1022,1.1025,0,0,0,0,0,0,0,0,1.0704,1.0715,1.0811,1.0813,1.0816,1.0883,1.0867,1.0951,1.0904,1.0871,1.0901,1.0899,1.0962,1.0969,1.099,1.1071,1.1075,1.1023,1.1026,1.1028,1.103,0,0,0,0,0,0,0,1.0698,1.0711,1.0833,1.0812,1.0816,1.0819,1.0829,1.0883,1.0923,1.0874,1.0875,1.0886,1.0963,1.0985,1.0993,1.1076,1.1023,1.1027,1.103,1.1032,1.121,1.1211,0,0,0,0,0,0,1.0689,1.0706,1.083,1.0836,1.0755,1.0823,1.0834,1.0863,1.0922,1.093,1.0887,1.0886,1.0977,1.0986,1.0996,1.1069,1.1028,1.1033,1.1036,1.1208,1.121,1.1212,0,0,0,0,0,0,1.0685,1.07,1.0826,1.0771,1.0787,1.0827,1.086,1.0866,1.0888,1.0932,1.0939,1.0902,1.0976,1.0989,1.1048,1.1073,1.1035,1.104,1.1206,1.1209,1.1211,1.1217,0,0,0,0,0,0,1.068,1.0698,1.0721,1.0771,1.079,1.0876,1.0861,1.0869,1.0897,1.0897,1.0948,1.0956,1.0976,1.104,1.1053,1.1079,1.1044,1.1204,1.1207,1.121,1.1214,1.1219,1.1223,0,0,0,0,0,1.0674,1.072,1.0722,1.0737,1.082,1.0878,1.0889,1.091,1.0899,1.0922,1.095,1.0954,1.1068,1.1046,1.1061,1.1089,1.1203,1.1207,1.121,1.1213,1.1218,1.1223,0,0,0,0,0,0,1.0672,1.0727,1.073,1.0793,1.0831,1.088,1.091,1.0916,1.0958,1.0956,1.0982,1.0993,1.1052,1.1077,1.1051,1.115,1.1134,1.1141,1.1131,1.1137,1.1141,1.1134,1.1048,0,0,0,0,0,1.0679,1.0721,1.0766,1.0818,1.0836,1.087,1.0896,1.0909,1.095,1.0966,1.0998,1.1037,1.1082,1.1111,1.1154,1.1218,1.1229,1.1244,1.1249,1.1252,1.1257,1.1292,1.1299,1.1224,1.1224,1.1224,0,0,1.0693,1.0728,1.0754,1.0818,1.0849,1.0892,1.0883,1.0929,1.0962,1.0973,1.1031,1.1056,1.1101,1.1163,1.1192,1.1185,1.1281,1.1256,1.1259,1.1263,1.1297,1.1304,1.131,1.1226,1.1226,1.1225,0,0,1.0742,1.0773,1.0819,1.0849,1.0895,1.0917,1.0928,1.0976,1.0993,1.1051,1.106,1.1099,1.1176,1.1207,1.1234,1.1293,1.1298,1.1307,1.1329,1.1362,1.1368,1.1374,1.1395,1.1402,1.1312,1.1312,1.1312,0,1.0755,1.082,1.0842,1.0887,1.0915,1.0926,1.0973,1.1002,1.106,1.1079,1.1071,1.1166,1.1198,1.1267,1.1281,1.1302,1.1315,1.1301,1.1366,1.1371,1.1377,1.1397,1.1405,1.1313,1.1313,1.1313,1.1313,0,1.0833,1.0878,1.0909,1.0964,1.0996,1.1042,1.107,1.11,1.111,1.1133,1.1192,1.123,1.1281,1.1298,1.131,1.1369,1.1363,1.136,1.1345,1.1384,1.1404,1.1412,1.1314,1.1314,1.1313,1.1313,0,0,1.0883,1.0949,1.096,1.0985,1.1036,1.1071,1.1118,1.1167,1.1191,1.1231,1.127,1.1334,1.1331,1.1361,1.1376,1.1405,1.145,1.1399,1.14,1.1406,1.1517,1.1519,1.1527,1.1453,1.1455,1.1456,1.1513,0,1.0937,1.102,1.104,1.111,1.1152,1.1163,1.1203,1.1239,1.1261,1.13,1.1325,1.137,1.1362,1.138,1.141,1.1438,1.1472,1.1434,1.149,1.1492,1.1478,1.1538,1.154,1.1592,1.1521,1.1522,1.1523,0,1.1012,1.1052,1.1126,1.1171,1.119,1.1225,1.1272,1.1309,1.1349,1.1364,1.1396,1.1408,1.1457,1.1439,1.1507,1.148,1.1504,1.1521,1.1524,1.153,1.151,1.1545,1.1609,1.1617,1.1535,1.1534,1.1533,0,1.1041,1.1114,1.1167,1.1188,1.1242,1.1267,1.1291,1.133,1.1358,1.1399,1.1417,1.1463,1.1488,1.1524,1.1548,1.1533,1.1613,1.1598,1.1626,1.1626,1.1643,1.1641,1.1711,1.1659,1.1658,1.1658,1.1658,0,1.1099,1.1144,1.1181,1.1214,1.1264,1.1287,1.1337,1.1361,1.1396,1.1433,1.1446,1.1481,1.1511,1.155,1.1569,1.1622,1.1634,1.1646,1.1651,1.1645,1.1644,1.1661,1.1658,1.166,1.166,1.166,1.1659,0,1.114,1.1166,1.1225,1.1271,1.1284,1.1319,1.1358,1.1391,1.1413,1.1461,1.1474,1.1509,1.1556,1.1583,1.1643,1.1656,1.1714,1.1717,1.17,1.1702,1.1729,1.1726,1.1813,1.1825,1.1764,1.1765,1.1765,0,1.1175,1.121,1.1259,1.1285,1.1309,1.1351,1.1379,1.1403,1.1432,1.1481,1.1507,1.1555,1.1594,1.1669,1.17,1.1746,1.175,1.1777,1.1757,1.175,1.175,1.1747,1.1751,1.1781,1.1781,1.1782,1.1782,0,1.1235,1.1246,1.1286,1.1331,1.1364,1.14,1.1437,1.1457,1.1487,1.1519,1.1567,1.1598,1.1658,1.1705,1.1753,1.1778,1.1785,1.1788,1.1797,1.1791,1.178,1.1786,1.1709,1.1786,1.1786,1.1785,1.1785,1.1785,1.1275,1.1305,1.1345,1.1389,1.1418,1.1451,1.1484,1.151,1.155,1.16,1.1612,1.1662,1.1702,1.1767,1.1793,1.1833,1.1828,1.1841,1.1844,1.1847,1.1848,1.1773,1.1842,1.1841,1.1841,1.1841,1.1841,0,1.1335,1.136,1.14,1.145,1.1485,1.1488,1.1528,1.1556,1.16,1.1636,1.1674,1.1729,1.1774,1.1809,1.1855,1.1881,1.1885,1.1892,1.189,1.1896,1.185,1.1837,1.1888,1.1888,1.1888,1.1888,1.1888,1.1888,1.137,1.1422,1.1438,1.1505,1.153,1.1579,1.1601,1.1632,1.1661,1.1721,1.1759,1.178,1.1816,1.1865,1.1907,1.1916,1.1933,1.1939,1.1948,1.1904,1.1899,1.1895,1.1883,1.1942,1.1942,1.1992,1.1992,1.1992]},{"header":{"parameterUnit":"m.s-1","parameterCategory":1,"la1":30.2991,"la2":30.254,"lo1":-89.0895,"lo2":-89.0444,"dy":0.0017,"dx":0.0017,"nx":28,"ny":28,"refTime":"2024-04-18T09:00:00:Z","depth":0,"parameterNumber":3,"parameterNumberName":"V-component_of_WINDS"},"data":[0,0,0,0,0,0,0,0,0,0,0,0,0,0,0,0,0,0,0,0,0,0,0,0,0,0,0,0,0,0,0,0,0,0,0,0,0,0,0,0,0,0,0,0,0,0,0,0,0,0,0,0,0,0,0,0,0,0,2.5896,2.5895,0,2.582,2.5819,2.5818,2.5731,2.5729,2.5728,2.5727,2.5647,2.5646,2.5645,0,0,0,0,0,0,0,0,0,0,0,0,0,2.5963,2.5962,2.5896,2.5895,2.5894,2.582,2.5819,2.5818,2.5731,2.5729,2.5728,2.5726,2.5647,2.5646,2.5645,0,0,0,0,0,0,0,0,0,0,0,0,0,2.5915,2.5962,2.5896,2.5842,2.5836,2.582,2.5819,2.5818,2.5731,2.5729,2.5727,2.5725,2.5647,2.5646,2.5645,2.5676,0,0,2.5641,2.564,0,0,0,0,0,0,0,0,2.5918,2.5913,2.5851,2.5846,2.5839,2.5783,2.5813,2.577,2.5732,2.5771,2.5727,2.5725,2.5694,2.5688,2.5678,2.5672,2.5669,2.564,2.564,2.5639,2.5639,0,0,0,0,0,0,0,2.5921,2.5916,2.5866,2.585,2.5843,2.582,2.5811,2.5805,2.5744,2.5767,2.5761,2.5753,2.569,2.568,2.5676,2.5667,2.5641,2.5639,2.5638,2.5638,2.5681,2.5683,0,0,0,0,0,0,2.5933,2.5919,2.5868,2.5864,2.5875,2.5821,2.5811,2.5803,2.5744,2.5733,2.5755,2.5749,2.5683,2.5677,2.5673,2.5704,2.5639,2.5638,2.5637,2.5679,2.5682,2.5684,0,0,0,0,0,0,2.5935,2.593,2.5871,2.5889,2.588,2.5822,2.5814,2.5802,2.5792,2.5735,2.5723,2.5756,2.5681,2.5674,2.5675,2.57,2.5637,2.5636,2.5677,2.568,2.5683,2.5769,0,0,0,0,0,0,2.5937,2.5931,2.5943,2.589,2.588,2.5877,2.5815,2.5802,2.579,2.5782,2.5732,2.5722,2.5679,2.5678,2.5674,2.5697,2.5635,2.5674,2.5678,2.5682,2.5763,2.5774,2.5783,0,0,0,0,0,2.594,2.597,2.5944,2.5938,2.5894,2.5878,2.5872,2.5823,2.5793,2.5804,2.5766,2.5724,2.5698,2.5679,2.5674,2.5697,2.5673,2.5677,2.5681,2.5759,2.5772,2.5783,0,0,0,0,0,0,2.6026,2.5962,2.5932,2.5946,2.5919,2.5864,2.5876,2.5838,2.5818,2.5811,2.575,2.5739,2.5748,2.5722,2.5702,2.5723,2.5679,2.5683,2.574,2.5752,2.5762,2.5768,2.5634,0,0,0,0,0,2.6047,2.6041,2.5984,2.6002,2.599,2.5936,2.5927,2.5891,2.586,2.5847,2.581,2.5781,2.5766,2.5757,2.574,2.5759,2.5746,2.5772,2.5782,2.5791,2.5795,2.5802,2.5812,2.5698,2.5698,2.5698,0,0,2.6089,2.6053,2.6053,2.6018,2.5993,2.5987,2.5926,2.5923,2.5917,2.5847,2.5845,2.5817,2.578,2.579,2.5792,2.5769,2.5823,2.5796,2.5804,2.5803,2.5807,2.5818,2.5828,2.5701,2.5701,2.57,0,0,2.6163,2.6136,2.6147,2.6123,2.6085,2.6048,2.6051,2.6002,2.5981,2.5979,2.5925,2.5917,2.5893,2.5868,2.5853,2.5917,2.5877,2.5913,2.5966,2.5973,2.5982,2.599,2.6012,2.6021,2.5917,2.5917,2.5917,0,2.6221,2.6211,2.6158,2.6157,2.6143,2.6079,2.609,2.6068,2.6027,2.6018,2.5992,2.596,2.593,2.5933,2.5949,2.5938,2.5939,2.5919,2.5986,2.5993,2.5999,2.602,2.6028,2.5922,2.5921,2.5921,2.5921,0,2.6283,2.6277,2.629,2.6252,2.6239,2.6244,2.6191,2.6185,2.615,2.6116,2.6114,2.6076,2.605,2.6048,2.6014,2.6046,2.6032,2.5997,2.5952,2.6015,2.6034,2.6041,2.5929,2.5927,2.5926,2.5924,0,0,2.641,2.6342,2.6348,2.6329,2.6282,2.6276,2.6278,2.6253,2.6248,2.6221,2.622,2.6201,2.6168,2.615,2.6112,2.6119,2.6172,2.6082,2.6081,2.61,2.6204,2.6231,2.6241,2.6144,2.6146,2.6147,2.6207,0,2.6475,2.6476,2.6428,2.6441,2.6434,2.6372,2.6373,2.6344,2.6312,2.6301,2.6265,2.6252,2.621,2.6198,2.6202,2.6165,2.6191,2.6159,2.6142,2.6142,2.6154,2.625,2.6279,2.6338,2.6213,2.6215,2.6216,0,2.6552,2.6531,2.6543,2.6495,2.649,2.6493,2.6465,2.6456,2.6421,2.6397,2.6377,2.6334,2.6331,2.6288,2.6282,2.6262,2.6252,2.6232,2.6233,2.6229,2.6183,2.6249,2.6355,2.6364,2.6226,2.6225,2.6225,0,2.6644,2.6617,2.6621,2.6607,2.6551,2.6554,2.6531,2.6494,2.6482,2.6458,2.6449,2.6425,2.6411,2.6393,2.6344,2.6317,2.6344,2.6297,2.6323,2.6325,2.6332,2.6332,2.6437,2.6326,2.6325,2.6325,2.6325,0,2.6722,2.6732,2.6661,2.6664,2.6673,2.6617,2.6627,2.6597,2.6565,2.656,2.6505,2.6501,2.6436,2.6425,2.6386,2.6387,2.6381,2.6361,2.6351,2.6367,2.6369,2.6359,2.6354,2.6328,2.6327,2.6327,2.6326,0,2.6826,2.6779,2.6779,2.6726,2.6713,2.6722,2.6675,2.6675,2.6639,2.6634,2.6629,2.6573,2.6556,2.6506,2.6476,2.645,2.6462,2.6443,2.6475,2.6468,2.6497,2.6495,2.66,2.661,2.6492,2.6493,2.6494,0,2.6879,2.6886,2.6833,2.6826,2.6805,2.6795,2.6782,2.6727,2.6716,2.6676,2.668,2.6659,2.664,2.6616,2.6572,2.6549,2.6528,2.6566,2.6524,2.6539,2.6528,2.6529,2.6529,2.6575,2.6577,2.6578,2.6579,0,2.6979,2.6955,2.694,2.6916,2.6903,2.6881,2.6856,2.6853,2.6791,2.6781,2.6764,2.6749,2.6719,2.6699,2.6668,2.6642,2.6601,2.6593,2.6598,2.6614,2.6632,2.6622,2.65,2.6591,2.659,2.6589,2.6588,2.6588,2.7059,2.7061,2.7025,2.7009,2.6985,2.6963,2.6959,2.6923,2.6909,2.688,2.6848,2.6835,2.6798,2.6753,2.673,2.6718,2.6695,2.6703,2.6704,2.6707,2.6714,2.6634,2.6712,2.6712,2.6711,2.6711,2.6711,0,2.7155,2.7129,2.7115,2.7082,2.707,2.7032,2.7002,2.6994,2.6983,2.6952,2.6934,2.6914,2.6894,2.6848,2.6823,2.6822,2.6802,2.6818,2.6817,2.6812,2.6736,2.6734,2.6834,2.6834,2.6834,2.6834,2.6834,2.6834,2.7204,2.7207,2.7179,2.7168,2.714,2.7127,2.7114,2.7092,2.7068,2.7048,2.7032,2.7002,2.6965,2.6937,2.6916,2.6903,2.6897,2.6918,2.6899,2.6829,2.6817,2.6806,2.6804,2.6917,2.6917,2.6976,2.6977,2.6977]}]]